Location: La Trinit�
(48.1620°N, 3.4512°W)
Time: 16:53:28
(UTC+00:00)

Cosmos 1238 Rocket - Pass Details

Date: 08 May 2021
Orbit: 373 x 1021 km, 82.9° (Epoch: 23 June)

Event Time Altitude Azimuth Distance (km) Brightness Sun altitude
Rises 23:24:22 0° 349° (N) 3,757 8.5 -23.7°
Reaches altitude 10° 23:27:02 10° 349° (NNW) 2,767 7.5 -23.8°
Maximum altitude 23:33:28 78° 265° (W) 942 3.8 -24.0°
Enters shadow 23:34:49 55° 193° (SSW) 1,072 3.8 -24.0°
